Content
SEND FEEDBACK

Daily
Averages
Monthly
Summary
United States of America

CHERITON, VIRGINIA


Home > North America > United States > Virginia
Elevation: 1 foot     Latitude: 37 17N     Longitude: 075 58W

WEATHER
 
SELECT A DAY
Number of Records: 446,170;   Date Range: 1/1/95 - 12/26/14
 
SHARE

PRINT THIS DATA

[ ← Previous Day ]
WEATHER ALMANAC - FEBRUARY 13, 2013
[ Next Day → ]
[ °C ]   °F
Weather ElementAverageHighLow
Temperature46.5 °F50 °F (1:36 pm)41 °F (10:36 pm)
Dewpoint40.5 °F44.6 °F (5:56 pm)33.8 °F (12:56 am)
Humidity79.9 %93 % (5:56 pm)58 % (12:56 am)
Barometer29.75 in29.94 in (12:56 am)29.60 in (4:36 pm)
Wind Speed6.5 mph15 mph (10:36 pm)
Wind Gust20.7 mph (9:59 pm)
Weather ElementAverage
Visibility8.2 mi
Wind DirectionSSE (151.4 °)

Weather ElementTotal
Precipitation0.09 in
Heating Degree Days19.5 (Base 65)
Averaged from 70 records on February 13, 2013
WEATHER CONDITIONS BREAKOUT
WIND DIRECTION BREAKOUT
WEATHER BY HOUR - FEBRUARY 13, 2013
[ °C ]   °F
Local TimeTemperatureDewpointHumidityBarometerVisibilityWind DirectionWind SpeedGust SpeedPrecipitationEventsConditions
12:56 AM48.2 °F33.8 °F58 %29.94 in10.0 miSSE (160°)3.5 mphClear
1:16 AM48.2 °F35.6 °F62 %29.93 in10.0 miCalmClear
1:36 AM46.4 °F35.6 °F66 %29.92 in10.0 miCalmClear
1:55 AM46.4 °F35.6 °F66 %29.93 in10.0 miSouth (180°)6.9 mphScattered Clouds
2:16 AM48.2 °F37.4 °F66 %29.92 in10.0 miSouth (170°)5.8 mphOvercast
2:36 AM48.2 °F37.4 °F66 %29.89 in10.0 miSSE (150°)6.9 mphOvercast
2:55 AM48.2 °F37.4 °F66 %29.89 in10.0 miSSE (160°)6.9 mphOvercast
3:16 AM48.2 °F37.4 °F66 %29.89 in10.0 miSouth (170°)5.8 mphOvercast
3:36 AM48.2 °F39.2 °F71 %29.88 in10.0 miSouth (180°)4.6 mphOvercast
3:58 AM48.2 °F39.2 °F71 %29.85 in10.0 miSSE (150°)5.8 mphOvercast
4:16 AM48.2 °F39.2 °F71 %29.87 in10.0 miSouth (190°)4.6 mphOvercast
4:37 AM48.2 °F39.2 °F71 %29.87 in10.0 miSouth (190°)4.6 mphOvercast
4:55 AM48.2 °F39.2 °F71 %29.87 in10.0 miSouth (190°)5.8 mphOvercast
5:16 AM48.2 °F39.2 °F71 %29.85 in10.0 miSouth (190°)3.5 mphOvercast
5:36 AM48.2 °F39.2 °F71 %29.85 in10.0 miCalmOvercast
5:58 AM46.4 °F39.2 °F76 %29.84 in10.0 miCalmOvercast
6:17 AM46.4 °F39.2 °F76 %29.85 in10.0 miWest (260°)3.5 mphOvercast
6:35 AM46.4 °F39.2 °F76 %29.84 in10.0 miCalmOvercast
6:55 AM46.4 °F39.2 °F76 %29.84 in10.0 miCalmOvercast
7:15 AM46.4 °F39.2 °F76 %29.83 in10.0 miEast (80°)5.8 mphOvercast
7:35 AM46.4 °F39.2 °F76 %29.85 in10.0 miEast (90°)3.5 mphOvercast
7:55 AM46.4 °F41.0 °F81 %29.84 in10.0 miEast (80°)6.9 mphOvercast
8:15 AM44.6 °F39.2 °F81 %29.85 in10.0 miEast (90°)5.8 mphMostly Cloudy
8:35 AM44.6 °F39.2 °F81 %29.87 in10.0 miEast (90°)6.9 mphOvercast
8:57 AM46.4 °F39.2 °F76 %29.86 in10.0 miEast (80°)5.8 mphScattered Clouds
9:15 AM46.4 °F39.2 °F76 %29.86 in10.0 miEast (80°)8.1 mphClear
9:36 AM46.4 °F39.2 °F76 %29.86 in10.0 miEast (90°)8.1 mphScattered Clouds
9:56 AM46.4 °F39.2 °F76 %29.84 in10.0 miEast (80°)11.5 mphClear
10:16 AM48.2 °F41.0 °F76 %29.85 in10.0 miESE (110°)4.6 mphRainLight Rain
10:36 AM48.2 °F41.0 °F76 %29.84 in10.0 miEast (90°)6.9 mphMostly Cloudy
10:56 AM48.2 °F41.0 °F76 %29.83 in10.0 miEast (80°)5.8 mphMostly Cloudy
11:16 AM48.2 °F41.0 °F76 %29.82 in10.0 miEast (90°)3.5 mphMostly Cloudy
11:36 AM48.2 °F42.8 °F82 %29.80 in10.0 miENE (60°)5.8 mphRainLight Rain
11:56 AM48.2 °F42.8 °F82 %29.80 in10.0 miENE (70°)6.9 mphMostly Cloudy
12:17 PM48.2 °F42.8 °F82 %29.78 in10.0 miENE (70°)5.8 mphRainLight Rain
12:36 PM48.2 °F42.8 °F82 %29.75 in10.0 miNE (50°)8.1 mphMostly Cloudy
12:56 PM48.2 °F42.8 °F82 %29.74 in10.0 miENE (60°)5.8 mphOvercast
1:16 PM48.2 °F42.8 °F82 %29.71 in10.0 miENE (70°)6.9 mphOvercast
1:36 PM50.0 °F42.8 °F76 %29.69 in10.0 miEast (80°)9.2 mphOvercast
1:56 PM50.0 °F42.8 °F76 %29.69 in10.0 miNE (50°)5.8 mphOvercast
2:16 PM50.0 °F42.8 °F76 %29.69 in10.0 miENE (60°)5.8 mphOvercast
2:36 PM48.2 °F42.8 °F82 %29.67 in10.0 miENE (60°)9.2 mphOvercast
2:56 PM48.2 °F42.8 °F82 %29.66 in10.0 miENE (70°)8.1 mphOvercast
3:16 PM48.2 °F42.8 °F82 %29.64 in10.0 miENE (60°)10.4 mphOvercast
3:36 PM48.2 °F42.8 °F82 %29.61 in10.0 miENE (70°)11.5 mphOvercast
3:56 PM48.2 °F42.8 °F82 %29.62 in10.0 miENE (70°)9.2 mphOvercast
4:16 PM48.2 °F42.8 °F82 %29.62 in7.0 miEast (80°)8.1 mphOvercast
4:36 PM46.4 °F42.8 °F87 %29.60 in4.0 miENE (70°)5.8 mphHaze
4:56 PM46.4 °F42.8 °F87 %29.62 in2.0 miCalmLight Drizzle
5:16 PM46.4 °F42.8 °F87 %29.61 in2.5 miCalmDrizzle
5:36 PM46.4 °F42.8 °F87 %29.60 in2.5 miCalm0.01 inHeavy Drizzle
5:56 PM46.4 °F44.6 °F93 %29.60 in2.5 miWNW (300°)3.5 mphDrizzle
6:16 PM46.4 °F44.6 °F93 %29.60 in2.5 miWNW (290°)5.8 mph0.01 inDrizzle
6:36 PM46.4 °F44.6 °F93 %29.60 in2.5 miNW (310°)6.9 mph0.02 inDrizzle
6:56 PM46.4 °F44.6 °F93 %29.61 in3.0 miNW (310°)10.4 mphDrizzle
7:16 PM46.4 °F42.8 °F87 %29.60 in2.5 miNW (320°)9.2 mph0.01 inDrizzle
7:36 PM44.6 °F42.8 °F93 %29.60 in2.5 miNNW (330°)8.1 mph0.02 inDrizzle
7:56 PM44.6 °F42.8 °F93 %29.61 in2.0 miNW (320°)8.1 mphDrizzle
8:16 PM44.6 °F42.8 °F93 %29.60 in3.0 miNNW (330°)6.9 mph0.01 inDrizzle
8:36 PM44.6 °F42.8 °F93 %29.61 in2.5 miNNW (330°)8.1 mph0.01 inOvercast
8:57 PM44.6 °F41.0 °F87 %29.62 in2.5 miNW (320°)9.2 mphLight Drizzle
9:16 PM42.8 °F41.0 °F93 %29.63 in3.0 miNNW (330°)9.2 mph16.1 mphOvercast
9:36 PM42.8 °F39.2 °F87 %29.64 in7.0 miNW (320°)6.9 mph18.4 mphOvercast
9:59 PM42.8 °F39.2 °F87 %29.66 in7.0 miNNW (330°)13.8 mph20.7 mphOvercast
10:16 PM42.8 °F39.2 °F87 %29.67 in10.0 miNW (310°)13.8 mph18.4 mphOvercast
10:36 PM41.0 °F39.2 °F93 %29.68 in10.0 miNW (320°)15.0 mph19.6 mphOvercast
10:56 PM41.0 °F37.4 °F87 %29.70 in7.0 miNNW (330°)9.2 mph18.4 mphOvercast
11:16 PM41.0 °F37.4 °F87 %29.70 in7.0 miNW (320°)10.4 mph18.4 mphOvercast
11:36 PM41.0 °F37.4 °F87 %29.71 in10.0 miNNW (330°)10.4 mph19.6 mphOvercast
11:56 PM41.0 °F37.4 °F87 %29.72 in10.0 miNNW (330°)13.8 mph20.7 mphOvercast
Hourly data recorded from KMFV, located miles away from Cheriton, Virginia







STORIES FROM OUR PARTNERS